Tracking 30701 objects as of 14-Jun-2025
HD Live streaming from Space Station
objects crossing your sky now

FENGYUN 1C DEB

Track FENGYUN 1C DEB now!
10-day predictions


NORAD ID: 30028
Int'l Code: 1999-025ND
Perigee: 591.1 km
Apogee: 846.2 km
Inclination: 98.1 °
Period: 99.0 minutes
Semi major axis: 7089 km
RCS: 0.049 m2 (small)
Launch date: May 10, 1999
Source: People's Republic of China (PRC)
Launch site: Taiyaun Space Center, China (TSC)

Note: This is SATELLITE DEBRIS
Your satellite tracking list
Your tracking list is empty




NASA's NSSDC Master Catalog

Two Line Element Set (TLE):
1 30028U 99025ND  25165.23621794  .00002727  00000-0  52698-3 0  9992
2 30028  98.1331 162.1066 0179888  71.2949 304.5976 14.54339296970966
Source of the keplerian elements: AFSPC